Flag for Germany Weather past 2 weeks in Dülmen, North Rhine-Westphalia, Germany

Now
55 °F

Clear.


Feels Like: 53 °F
Forecast: 51 / 65 °F
Wind: 10 mph from Southwest

Location: Muenster / Osnabrueck

Current Time: Jul 29, 2015 at 5:05:06 AM

Latest Report: Jul 29, 2015 at 4:20 AM


Visibility: 10 mi

Pressure: 29.71 "Hg

Humidity: 77%

Dew point: 48 °F

Location of DülmenLocation

Historic Weather in Dülmen — Graph

°F

Dülmen temperature yesterday

Maximum temperature yesterday: 66 °F (at 1:50 PM)
Minimum temperature yesterday: 57 °F (at 5:50 AM)
Average temperature yesterday: 61 °F

Past Weeks' High & Low Weather Summary

 TemperatureHumidityPressure
High90 °F (Jul 17, 4:20 PM)100% (Jul 14, 4:50 AM)30.12 "Hg (Jul 14, 4:50 AM)
Low50 °F (Jul 20, 4:50 AM)27% (Jul 17, 5:20 PM)29.47 "Hg (Jul 25, 7:20 AM)
Average66 °F73%29.87 "Hg
* Reported Jul 14 3:20 AM — Jul 29 3:50 AM, Dülmen, Weather by CustomWeather, © 2015

Note: Actual official high and low records may vary slightly from our data, if they occured in-between our weather recording intervals... More about our weather records

Advertising

Dülmen weather history for previous 24 hours

 ConditionsComfort  
Time TempWeatherWind HumidityBarometerVisibility
3:50 AM
Wed, Jul 29
57 °FPassing clouds.12 mph72%29.71 "HgN/A
3:20 AM57 °FPassing clouds.12 mph72%29.71 "HgN/A
2:50 AM57 °FClear.13 mph72%29.71 "Hg10 mi
2:20 AM59 °FPassing clouds.14 mph63%29.71 "HgN/A
1:50 AM59 °FPassing clouds.14 mph63%29.71 "HgN/A
1:20 AM59 °FPassing clouds.14 mph63%29.71 "HgN/A
12:50 AM59 °FClear.13 mph63%29.71 "Hg10 mi
11:20 PM
Tue, Jul 28
61 °FPartly cloudy.13 mph63%29.71 "HgN/A
10:50 PM61 °FClear.9 mph68%29.71 "Hg10 mi
10:20 PM61 °FPartly sunny.10 mph63%29.71 "HgN/A
9:50 PM61 °FPartly sunny.7 mph68%29.71 "HgN/A
9:20 PM63 °FScattered showers. Partly sunny.15 mph59%29.71 "HgN/A
8:20 PM63 °FScattered showers. Partly sunny.12 mph64%29.68 "HgN/A
7:50 PM63 °FScattered showers. Partly sunny.16 mph59%29.68 "HgN/A
7:20 PM64 °FScattered clouds.18 mph60%29.68 "HgN/A
6:50 PM63 °FScattered showers. Broken clouds.15 mph73%29.68 "HgN/A
6:20 PM61 °FSprinkles. Broken clouds.15 mph72%29.68 "HgN/A
5:50 PM64 °FSprinkles. Broken clouds.12 mph68%29.68 "HgN/A
5:20 PM63 °FScattered showers. Broken clouds.16 mph73%29.68 "HgN/A
4:50 PM63 °FSprinkles. Broken clouds.17 mph77%29.68 "HgN/A
4:20 PM63 °FSprinkles. Broken clouds.13 mph77%29.68 "HgN/A
3:50 PM63 °FSprinkles. Broken clouds.8 mph88%29.65 "HgN/A
3:20 PM59 °FRain showers. Partly sunny.15 mph88%29.65 "Hg6 mi
2:50 PM66 °FRain showers. Broken clouds.17 mph60%29.65 "HgN/A
2:20 PM66 °FScattered showers. Broken clouds.17 mph60%29.65 "HgN/A
1:50 PM66 °FBroken clouds.18 mph60%29.65 "HgN/A
1:20 PM64 °FBroken clouds.15 mph64%29.65 "HgN/A
12:50 PM63 °FLight rain. Broken clouds.15 mph73%29.65 "HgN/A
12:20 PM61 °FBroken clouds.16 mph83%29.65 "HgN/A
11:50 AM59 °FLight rain. Partly sunny.18 mph88%29.65 "Hg6 mi
11:20 AM61 °FPartly sunny.18 mph77%29.62 "HgN/A
10:50 AM61 °FPartly sunny.20 mph77%29.62 "HgN/A
10:20 AM61 °FPartly sunny.17 mph77%29.62 "HgN/A
9:50 AM61 °FPartly sunny.17 mph72%29.62 "HgN/A
9:20 AM61 °FPartly sunny.16 mph72%29.62 "HgN/A
8:50 AM59 °FBroken clouds.17 mph77%29.62 "HgN/A
8:20 AM59 °FBroken clouds.17 mph77%29.62 "HgN/A
7:50 AM59 °FPartly sunny.18 mph77%29.59 "HgN/A
7:20 AM57 °FBroken clouds.15 mph82%29.59 "HgN/A
6:50 AM57 °FPartly sunny.15 mph82%29.59 "HgN/A
6:20 AM57 °FPassing clouds.15 mph77%29.59 "HgN/A
5:50 AM57 °FPassing clouds.15 mph77%29.59 "HgN/A
5:20 AM59 °FPassing clouds.13 mph72%29.59 "HgN/A
Weather by CustomWeather, © 2015

See weather overviewHow to use our weather pages